Regional Weather Roundup
Issued by NWS

Home | Current Version | Previous Version | Graphics & Text | Print | Product List | Glossary On
Versions: 1 2 3 4 5 6 7 8 9 10 11 12 13 14 15 16 17 18 19 20 21 22 23 24 25 26 27 28 29 30 31 32 33 34 35 36 37 38 39 40 41 42 43 44 45 46 47 48 49 50
000
ASUS45 KCYS 030810
RWRWY

WYOMING REGIONAL WEATHER ROUNDUP
NATIONAL WEATHER SERVICE CHEYENNE WY
200 AM MDT SUN MAY 03 2015

NOTE:  "FAIR" INDICATES FEW OR NO CLOUDS BELOW 12,000 FEET
WITH NO SIGNIFICANT WEATHER AND/OR OBSTRUCTIONS TO VISIBILITY.

WYZ001-030900-
YELLOWSTONE NATIONAL PARK

CITY           SKY/WX    TMP DP  RH WIND       PRES   REMARKS
LK YELLOWSTONE   N/A     37  26  64 CALM      30.01S
W YELLOWSTONE  NOT AVBL

$$
WYZ002>013-054>058-071-098>099-030900-
NORTHERN WYOMING

CITY           SKY/WX    TMP DP  RH WIND       PRES   REMARKS
JACKSON        FAIR      45  32  61 S5        29.95S
CODY           FAIR      54  28  37 NW6       29.91R
GREYBULL       FAIR      58  28  32 NW10      29.81S
WORLAND        FAIR      57  29  34 N12       29.83R
SHERIDAN       MOCLDY    54  34  46 NW10      29.88S
BUFFALO        CLOUDY    56  31  38 NW10      29.92R
GILLETTE       FAIR      48  31  51 N5        29.83R
HULETT         FAIR      52  28  40 NE7       29.86R
NEWCASTLE      FAIR      52  32  46 CALM      29.82R

$$
WYZ014>020-022>026-101>103-030900-
CENTRAL WYOMING

CITY           SKY/WX    TMP DP  RH WIND       PRES   REMARKS
BIG PINEY      MOCLDY    43  32  65 NE5       30.02S
PINEDALE       FAIR      39  34  81 CALM      30.03F
DUBOIS         FAIR      45  28  53 CALM      29.97R
LANDER         FAIR      60  28  29 W6        29.89R
RIVERTON       FAIR      55  29  36 E5        29.90R
CASPER         FAIR      51  34  52 W6        29.89R
DOUGLAS        FAIR      51  37  58 NW3       29.86S

$$
WYZ021-027>030-104>119-030900-
SOUTHERN WYOMING

CITY           SKY/WX    TMP DP  RH WIND       PRES   REMARKS
EVANSTON       CLOUDY    50  32  50 NE6       30.04S
KEMMERER       FAIR      46  32  57 CALM      30.04S
FORT BRIDGER   CLOUDY    50  34  53 W8        30.06S
ROCK SPRINGS   MOCLDY    46  37  71 W7        30.01S
DIXON          CLOUDY    45  37  73 E12       30.06S
RAWLINS        FAIR      51  32  48 SW16      30.00S
SARATOGA       FAIR      46  34  61 SE9       30.04S
LARAMIE        MOCLDY    47  35  63 S8        30.02S
CHEYENNE       FAIR      56  34  43 W17       29.93F
TORRINGTON     FAIR      54  42  64 S5        29.81F
PINE BLUFFS    FAIR      48  41  76 S10       29.91F

$$



USA.gov is the U.S. government's official web portal to all federal, state and local government web resources and services.